"Time","Value","Approval","myLocation"
"2023-05-06 00:00",4.28948118898761,"Approved","OW353"
"2023-05-06 01:00",4.29048228583964,"Approved","OW353"
"2023-05-06 02:00",4.29048338269167,"Approved","OW353"
"2023-05-06 03:00",4.29048447954371,"Approved","OW353"
"2023-05-06 04:00",4.29148557639574,"Approved","OW353"
"2023-05-06 05:00",4.29248667324778,"Approved","OW353"
"2023-05-06 06:00",4.29148777009981,"Approved","OW353"
"2023-05-06 07:00",4.29148886695185,"Approved","OW353"
"2023-05-06 08:00",4.29148996380388,"Approved","OW353"
"2023-05-06 09:00",4.29149106065592,"Approved","OW353"
"2023-05-06 10:00",4.29149215750795,"Approved","OW353"
"2023-05-06 11:00",4.29249325435999,"Approved","OW353"
"2023-05-06 12:00",4.29249435121202,"Approved","OW353"
"2023-05-06 13:00",4.29249544806406,"Approved","OW353"
"2023-05-06 14:00",4.29349654491609,"Approved","OW353"
"2023-05-06 15:00",4.29349764176813,"Approved","OW353"
"2023-05-06 16:00",4.29449873862016,"Approved","OW353"
"2023-05-06 17:00",4.29449983547219,"Approved","OW353"
"2023-05-06 18:00",4.29450093232423,"Approved","OW353"
"2023-05-06 19:00",4.29450202917626,"Approved","OW353"
"2023-05-06 20:00",4.2945031260283,"Approved","OW353"
"2023-05-06 21:00",4.29450422288033,"Approved","OW353"
"2023-05-06 22:00",4.29550531973237,"Approved","OW353"
"2023-05-06 23:00",4.2945064165844,"Approved","OW353"
"2023-05-07 00:00",4.29550751343644,"Approved","OW353"
"2023-05-07 01:00",4.29550861028847,"Approved","OW353"
"2023-05-07 02:00",4.29650970714051,"Approved","OW353"
"2023-05-07 03:00",4.29651080399254,"Approved","OW353"
"2023-05-07 04:00",4.29751190084458,"Approved","OW353"
"2023-05-07 05:00",4.29751299769661,"Approved","OW353"
"2023-05-07 06:00",4.29851409454865,"Approved","OW353"
"2023-05-07 07:00",4.29851519140068,"Approved","OW353"
"2023-05-07 08:00",4.29851628825271,"Approved","OW353"
"2023-05-07 09:00",4.29951738510475,"Approved","OW353"
"2023-05-07 10:00",4.29951848195678,"Approved","OW353"
"2023-05-07 11:00",4.30051957880882,"Approved","OW353"
"2023-05-07 12:00",4.30052067566085,"Approved","OW353"
"2023-05-07 13:00",4.30152177251289,"Approved","OW353"
"2023-05-07 14:00",4.30152286936492,"Approved","OW353"
"2023-05-07 15:00",4.30252396621696,"Approved","OW353"
"2023-05-07 16:00",4.30252506306899,"Approved","OW353"
"2023-05-07 17:00",4.30252615992103,"Approved","OW353"
"2023-05-07 18:00",4.30252725677306,"Approved","OW353"
"2023-05-07 19:00",4.3025283536251,"Approved","OW353"
"2023-05-07 20:00",4.30252945047713,"Approved","OW353"
"2023-05-07 21:00",4.30353054732916,"Approved","OW353"
"2023-05-07 22:00",4.3035316441812,"Approved","OW353"
"2023-05-07 23:00",4.30253274103324,"Approved","OW353"
"2023-05-08 00:00",4.30253383788527,"Approved","OW353"
"2023-05-08 01:00",4.3035349347373,"Approved","OW353"
"2023-05-08 02:00",4.30353603158934,"Approved","OW353"
"2023-05-08 03:00",4.30453712844137,"Approved","OW353"
"2023-05-08 04:00",4.30553822529341,"Approved","OW353"
"2023-05-08 05:00",4.30653932214544,"Approved","OW353"
"2023-05-08 06:00",4.30554041899748,"Approved","OW353"
"2023-05-08 07:00",4.30654151584951,"Approved","OW353"
"2023-05-08 08:00",4.30654261270155,"Approved","OW353"
"2023-05-08 09:00",4.30654370955358,"Approved","OW353"
"2023-05-08 10:00",4.30654480640562,"Approved","OW353"
"2023-05-08 11:00",4.30754590325765,"Approved","OW353"
"2023-05-08 12:00",4.30654700010968,"Approved","OW353"
"2023-05-08 13:00",4.30754809696172,"Approved","OW353"
"2023-05-08 14:00",4.30854919381375,"Approved","OW353"
"2023-05-08 15:00",4.30755029066579,"Approved","OW353"
"2023-05-08 16:00",4.30755138751782,"Approved","OW353"
"2023-05-08 17:00",4.30755248436986,"Approved","OW353"
"2023-05-08 18:00",4.30755358122189,"Approved","OW353"
"2023-05-08 19:00",4.30755467807393,"Approved","OW353"
"2023-05-08 20:00",4.30855577492596,"Approved","OW353"
"2023-05-08 21:00",4.308556871778,"Approved","OW353"
"2023-05-08 22:00",4.30855796863003,"Approved","OW353"
"2023-05-08 23:00",4.30855906548207,"Approved","OW353"
"2023-05-09 00:00",4.3085601623341,"Approved","OW353"
"2023-05-09 01:00",4.30956125918614,"Approved","OW353"
"2023-05-09 02:00",4.31056235603817,"Approved","OW353"
"2023-05-09 03:00",4.3115634528902,"Approved","OW353"
"2023-05-09 04:00",4.31256454974224,"Approved","OW353"
"2023-05-09 05:00",4.31356564659427,"Approved","OW353"
"2023-05-09 06:00",4.31456674344631,"Approved","OW353"
"2023-05-09 07:00",4.31456784029834,"Approved","OW353"
"2023-05-09 08:00",4.31556893715038,"Approved","OW353"
"2023-05-09 09:00",4.31657003400241,"Approved","OW353"
"2023-05-09 10:00",4.31757113085445,"Approved","OW353"
"2023-05-09 11:00",4.31857222770648,"Approved","OW353"
"2023-05-09 12:00",4.31857332455852,"Approved","OW353"
"2023-05-09 13:00",4.31957442141055,"Approved","OW353"
"2023-05-09 14:00",4.31957551826259,"Approved","OW353"
"2023-05-09 15:00",4.32057661511462,"Approved","OW353"
"2023-05-09 16:00",4.31857771196666,"Approved","OW353"
"2023-05-09 17:00",4.31857880881869,"Approved","OW353"
"2023-05-09 18:00",4.31957990567072,"Approved","OW353"
"2023-05-09 19:00",4.31858100252276,"Approved","OW353"
"2023-05-09 20:00",4.31758209937479,"Approved","OW353"
"2023-05-09 21:00",4.31758319622683,"Approved","OW353"
"2023-05-09 22:00",4.31858429307886,"Approved","OW353"
"2023-05-09 23:00",4.3175853899309,"Approved","OW353"
"2023-05-10 00:00",4.31658648678293,"Approved","OW353"
"2023-05-10 01:00",4.31758758363497,"Approved","OW353"
"2023-05-10 02:00",4.319588680487,"Approved","OW353"
"2023-05-10 03:00",4.32058977733904,"Approved","OW353"
"2023-05-10 04:00",4.32159087419107,"Approved","OW353"
"2023-05-10 05:00",4.32259197104311,"Approved","OW353"
"2023-05-10 06:00",4.32259306789514,"Approved","OW353"
"2023-05-10 07:00",4.32259416474718,"Approved","OW353"
"2023-05-10 08:00",4.32359526159921,"Approved","OW353"
"2023-05-10 09:00",4.32259635845124,"Approved","OW353"
"2023-05-10 10:00",4.32359745530328,"Approved","OW353"
"2023-05-10 11:00",4.32359855215531,"Approved","OW353"
"2023-05-10 12:00",4.32459964900735,"Approved","OW353"
"2023-05-10 13:00",4.32460074585938,"Approved","OW353"
"2023-05-10 14:00",4.32460184271142,"Approved","OW353"
"2023-05-10 15:00",4.32460293956345,"Approved","OW353"
"2023-05-10 16:00",4.32460403641549,"Approved","OW353"
"2023-05-10 17:00",4.32360513326752,"Approved","OW353"
"2023-05-10 18:00",4.32360623011956,"Approved","OW353"
"2023-05-10 19:00",4.32460732697159,"Approved","OW353"
"2023-05-10 20:00",4.32460842382363,"Approved","OW353"
"2023-05-10 21:00",4.32460952067566,"Approved","OW353"
"2023-05-10 22:00",4.3246106175277,"Approved","OW353"
"2023-05-10 23:00",4.32461171437973,"Approved","OW353"
"2023-05-11 00:00",4.32461281123177,"Approved","OW353"
"2023-05-11 01:00",4.3246139080838,"Approved","OW353"
"2023-05-11 02:00",4.32561500493583,"Approved","OW353"
"2023-05-11 03:00",4.32761610178787,"Approved","OW353"
"2023-05-11 04:00",4.3286171986399,"Approved","OW353"
"2023-05-11 05:00",4.32961829549194,"Approved","OW353"
"2023-05-11 06:00",4.33061939234397,"Approved","OW353"
"2023-05-11 07:00",4.33062048919601,"Approved","OW353"
"2023-05-11 08:00",4.33162158604804,"Approved","OW353"
"2023-05-11 09:00",4.33262268290008,"Approved","OW353"
"2023-05-11 10:00",4.33262377975211,"Approved","OW353"
"2023-05-11 11:00",4.33462487660415,"Approved","OW353"
"2023-05-11 12:00",4.33462597345618,"Approved","OW353"
"2023-05-11 13:00",4.33562707030821,"Approved","OW353"
"2023-05-11 14:00",4.33662816716025,"Approved","OW353"
"2023-05-11 15:00",4.33662926401228,"Approved","OW353"
"2023-05-11 16:00",4.33663036086432,"Approved","OW353"
"2023-05-11 17:00",4.33663145771635,"Approved","OW353"
"2023-05-11 18:00",4.33663255456839,"Approved","OW353"
"2023-05-11 19:00",4.33563365142042,"Approved","OW353"
"2023-05-11 20:00",4.33663474827246,"Approved","OW353"
"2023-05-11 21:00",4.33663584512449,"Approved","OW353"
"2023-05-11 22:00",4.33563694197653,"Approved","OW353"
"2023-05-11 23:00",4.33563803882856,"Approved","OW353"
"2023-05-12 00:00",4.3366391356806,"Approved","OW353"
"2023-05-12 01:00",4.33964023253263,"Approved","OW353"
"2023-05-12 02:00",4.35664132938467,"Approved","OW353"
"2023-05-12 03:00",4.3486424262367,"Approved","OW353"
"2023-05-12 04:00",4.34564352308874,"Approved","OW353"
"2023-05-12 05:00",4.34564461994077,"Approved","OW353"
"2023-05-12 06:00",4.3466457167928,"Approved","OW353"
"2023-05-12 07:00",4.34664681364484,"Approved","OW353"
"2023-05-12 08:00",4.34764791049687,"Approved","OW353"
"2023-05-12 09:00",4.34864900734891,"Approved","OW353"
"2023-05-12 10:00",4.34865010420094,"Approved","OW353"
"2023-05-12 11:00",4.34865120105298,"Approved","OW353"
"2023-05-12 12:00",4.34865229790501,"Approved","OW353"
"2023-05-12 13:00",4.34965339475705,"Approved","OW353"
"2023-05-12 14:00",4.35065449160908,"Approved","OW353"
"2023-05-12 15:00",4.35165558846112,"Approved","OW353"
"2023-05-12 16:00",4.35665668531315,"Approved","OW353"
"2023-05-12 17:00",4.36765778216519,"Approved","OW353"
"2023-05-12 18:00",4.37765887901722,"Approved","OW353"
"2023-05-12 19:00",4.38165997586925,"Approved","OW353"
"2023-05-12 20:00",4.38466107272129,"Approved","OW353"
"2023-05-12 21:00",4.38866216957332,"Approved","OW353"
"2023-05-12 22:00",4.39266326642536,"Approved","OW353"
"2023-05-12 23:00",4.39566436327739,"Approved","OW353"
"2023-05-13 00:00",4.39766546012943,"Approved","OW353"
"2023-05-13 01:00",4.40166655698146,"Approved","OW353"
"2023-05-13 02:00",4.4056676538335,"Approved","OW353"
"2023-05-13 03:00",4.40966875068553,"Approved","OW353"
"2023-05-13 04:00",4.41266984753757,"Approved","OW353"
"2023-05-13 05:00",4.4176709443896,"Approved","OW353"
"2023-05-13 06:00",4.39967204124164,"Approved","OW353"
"2023-05-13 07:00",4.39767313809367,"Approved","OW353"
"2023-05-13 08:00",4.39667423494571,"Approved","OW353"
"2023-05-13 09:00",4.39567533179774,"Approved","OW353"
"2023-05-13 10:00",4.39567642864978,"Approved","OW353"
"2023-05-13 11:00",4.39567752550181,"Approved","OW353"
"2023-05-13 12:00",4.39467862235384,"Approved","OW353"
"2023-05-13 13:00",4.39467971920588,"Approved","OW353"
"2023-05-13 14:00",4.39668081605791,"Approved","OW353"
"2023-05-13 15:00",4.41068191290995,"Approved","OW353"
"2023-05-13 16:00",4.42568300976198,"Approved","OW353"
"2023-05-13 17:00",4.43168410661402,"Approved","OW353"
"2023-05-13 18:00",4.43668520346605,"Approved","OW353"
"2023-05-13 19:00",4.44168630031809,"Approved","OW353"
"2023-05-13 20:00",4.44468739717012,"Approved","OW353"
"2023-05-13 21:00",4.44768849402216,"Approved","OW353"
"2023-05-13 22:00",4.45168959087419,"Approved","OW353"
"2023-05-13 23:00",4.45469068772623,"Approved","OW353"
"2023-05-14 00:00",4.45669178457826,"Approved","OW353"
"2023-05-14 01:00",4.4566928814303,"Approved","OW353"
"2023-05-14 02:00",4.45869397828233,"Approved","OW353"
"2023-05-14 03:00",4.46569507513436,"Approved","OW353"
"2023-05-14 04:00",4.4726961719864,"Approved","OW353"
"2023-05-14 05:00",4.46569726883843,"Approved","OW353"
"2023-05-14 06:00",4.47869836569047,"Approved","OW353"
"2023-05-14 07:00",4.4826994625425,"Approved","OW353"
"2023-05-14 08:00",4.48670055939454,"Approved","OW353"
"2023-05-14 09:00",4.49070165624657,"Approved","OW353"
"2023-05-14 10:00",4.49470275309861,"Approved","OW353"
"2023-05-14 11:00",4.49870384995064,"Approved","OW353"
"2023-05-14 12:00",4.50170494680268,"Approved","OW353"
"2023-05-14 13:00",4.50470604365471,"Approved","OW353"
"2023-05-14 14:00",4.50870714050675,"Approved","OW353"
"2023-05-14 15:00",4.51270823735878,"Approved","OW353"
"2023-05-14 16:00",4.51470933421081,"Approved","OW353"
"2023-05-14 17:00",4.49371043106285,"Approved","OW353"
"2023-05-14 18:00",4.50171152791488,"Approved","OW353"
"2023-05-14 19:00",4.51271262476692,"Approved","OW353"
"2023-05-14 20:00",4.51671372161895,"Approved","OW353"
"2023-05-14 21:00",4.52071481847099,"Approved","OW353"
"2023-05-14 22:00",4.52371591532302,"Approved","OW353"
"2023-05-14 23:00",4.52271701217506,"Approved","OW353"
"2023-05-15 00:00",4.52871810902709,"Approved","OW353"
"2023-05-15 01:00",4.51671920587913,"Approved","OW353"
"2023-05-15 02:00",4.53572030273116,"Approved","OW353"
"2023-05-15 03:00",4.5407213995832,"Approved","OW353"
"2023-05-15 04:00",4.54572249643523,"Approved","OW353"
"2023-05-15 05:00",4.53972359328727,"Approved","OW353"
"2023-05-15 06:00",4.5297246901393,"Approved","OW353"
"2023-05-15 07:00",4.52972578699133,"Approved","OW353"
"2023-05-15 08:00",4.52872688384337,"Approved","OW353"
"2023-05-15 09:00",4.5287279806954,"Approved","OW353"
"2023-05-15 10:00",4.52772907754744,"Approved","OW353"
"2023-05-15 11:00",4.52773017439947,"Approved","OW353"
"2023-05-15 12:00",4.52873127125151,"Approved","OW353"
"2023-05-15 13:00",4.52973236810354,"Approved","OW353"
"2023-05-15 14:00",4.52473346495558,"Approved","OW353"
"2023-05-15 15:00",4.53473456180761,"Approved","OW353"
"2023-05-15 16:00",4.54473565865965,"Approved","OW353"
"2023-05-15 17:00",4.54773675551168,"Approved","OW353"
"2023-05-15 18:00",4.55173785236372,"Approved","OW353"
"2023-05-15 19:00",4.55473894921575,"Approved","OW353"
"2023-05-15 20:00",4.55674004606779,"Approved","OW353"
"2023-05-15 21:00",4.55974114291982,"Approved","OW353"
"2023-05-15 22:00",4.56674223977186,"Approved","OW353"
"2023-05-15 23:00",4.57074333662389,"Approved","OW353"
"2023-05-16 00:00",4.57474443347592,"Approved","OW353"
"2023-05-16 01:00",4.57874553032796,"Approved","OW353"
"2023-05-16 02:00",4.58174662717999,"Approved","OW353"
"2023-05-16 03:00",4.58274772403203,"Approved","OW353"
"2023-05-16 04:00",4.58774882088406,"Approved","OW353"
"2023-05-16 05:00",4.5927499177361,"Approved","OW353"
"2023-05-16 06:00",4.59775101458813,"Approved","OW353"
"2023-05-16 07:00",4.59075211144017,"Approved","OW353"
"2023-05-16 08:00",4.5827532082922,"Approved","OW353"
"2023-05-16 09:00",4.58175430514424,"Approved","OW353"
"2023-05-16 10:00",4.58075540199627,"Approved","OW353"
"2023-05-16 11:00",4.5807564988483,"Approved","OW353"
"2023-05-16 12:00",4.57975759570034,"Approved","OW353"
"2023-05-16 13:00",4.58075869255237,"Approved","OW353"
"2023-05-16 14:00",4.57675978940441,"Approved","OW353"
"2023-05-16 15:00",4.57876088625644,"Approved","OW353"
"2023-05-16 16:00",4.57976198310848,"Approved","OW353"
"2023-05-16 17:00",4.57976307996051,"Approved","OW353"
"2023-05-16 18:00",4.57976417681255,"Approved","OW353"
"2023-05-16 19:00",4.57876527366458,"Approved","OW353"
"2023-05-16 20:00",4.57876637051662,"Approved","OW353"
"2023-05-16 21:00",4.57876746736865,"Approved","OW353"
"2023-05-16 22:00",4.57276856422069,"Approved","OW353"
"2023-05-16 23:00",4.56976966107272,"Approved","OW353"
"2023-05-17 00:00",4.56677075792476,"Approved","OW353"
"2023-05-17 01:00",4.56677185477679,"Approved","OW353"
"2023-05-17 02:00",4.56577295162883,"Approved","OW353"
"2023-05-17 03:00",4.56577404848086,"Approved","OW353"
"2023-05-17 04:00",4.56477514533289,"Approved","OW353"
"2023-05-17 05:00",4.56477624218493,"Approved","OW353"
"2023-05-17 06:00",4.56377733903696,"Approved","OW353"
"2023-05-17 07:00",4.560778435889,"Approved","OW353"
"2023-05-17 08:00",4.56077953274103,"Approved","OW353"
"2023-05-17 09:00",4.55978062959307,"Approved","OW353"
"2023-05-17 10:00",4.5587817264451,"Approved","OW353"
"2023-05-17 11:00",4.55778282329714,"Approved","OW353"
"2023-05-17 12:00",4.55778392014917,"Approved","OW353"
"2023-05-17 13:00",4.55778501700121,"Approved","OW353"
"2023-05-17 14:00",4.55678611385324,"Approved","OW353"
"2023-05-17 15:00",4.55778721070528,"Approved","OW353"
"2023-05-17 16:00",4.57778830755731,"Approved","OW353"
"2023-05-17 17:00",4.58878940440935,"Approved","OW353"
"2023-05-17 18:00",4.59679050126138,"Approved","OW353"
"2023-05-17 19:00",4.58279159811342,"Approved","OW353"
"2023-05-17 20:00",4.60079269496545,"Approved","OW353"
"2023-05-17 21:00",4.60679379181748,"Approved","OW353"
"2023-05-17 22:00",4.60979488866952,"Approved","OW353"
"2023-05-17 23:00",4.61279598552155,"Approved","OW353"
"2023-05-18 00:00",4.61679708237359,"Approved","OW353"
"2023-05-18 01:00",4.61579817922562,"Approved","OW353"
"2023-05-18 02:00",4.61679927607766,"Approved","OW353"
"2023-05-18 03:00",4.61180037292969,"Approved","OW353"
"2023-05-18 04:00",4.59980146978173,"Approved","OW353"
"2023-05-18 05:00",4.60980256663376,"Approved","OW353"
"2023-05-18 06:00",4.6258036634858,"Approved","OW353"
"2023-05-18 07:00",4.63180476033783,"Approved","OW353"
"2023-05-18 08:00",4.63480585718986,"Approved","OW353"
"2023-05-18 09:00",4.6388069540419,"Approved","OW353"
"2023-05-18 10:00",4.64180805089393,"Approved","OW353"
"2023-05-18 11:00",4.64480914774597,"Approved","OW353"
"2023-05-18 12:00",4.647810244598,"Approved","OW353"
"2023-05-18 13:00",4.65181134145004,"Approved","OW353"
"2023-05-18 14:00",4.63381243830207,"Approved","OW353"
"2023-05-18 15:00",4.65381353515411,"Approved","OW353"
"2023-05-18 16:00",4.65681463200614,"Approved","OW353"
"2023-05-18 17:00",4.65981572885818,"Approved","OW353"
"2023-05-18 18:00",4.66281682571021,"Approved","OW353"
"2023-05-18 19:00",4.66581792256225,"Approved","OW353"
"2023-05-18 20:00",4.66881901941428,"Approved","OW353"
"2023-05-18 21:00",4.67182011626632,"Approved","OW353"
"2023-05-18 22:00",4.67482121311835,"Approved","OW353"
"2023-05-18 23:00",4.67882230997038,"Approved","OW353"
"2023-05-19 00:00",4.67382340682242,"Approved","OW353"
"2023-05-19 01:00",4.68082450367445,"Approved","OW353"
"2023-05-19 02:00",4.68582560052649,"Approved","OW353"
"2023-05-19 03:00",4.68982669737852,"Approved","OW353"
"2023-05-19 04:00",4.69382779423056,"Approved","OW353"
"2023-05-19 05:00",4.69682889108259,"Approved","OW353"
"2023-05-19 06:00",4.69882998793463,"Approved","OW353"
"2023-05-19 07:00",4.70283108478666,"Approved","OW353"
"2023-05-19 08:00",4.7048321816387,"Approved","OW353"
"2023-05-19 09:00",4.70783327849073,"Approved","OW353"
"2023-05-19 10:00",4.71083437534277,"Approved","OW353"
"2023-05-19 11:00",4.7128354721948,"Approved","OW353"
"2023-05-19 12:00",4.71683656904684,"Approved","OW353"
"2023-05-19 13:00",4.71983766589887,"Approved","OW353"
"2023-05-19 14:00",4.69783876275091,"Approved","OW353"
"2023-05-19 15:00",4.70883985960294,"Approved","OW353"
"2023-05-19 16:00",4.71884095645497,"Approved","OW353"
"2023-05-19 17:00",4.72284205330701,"Approved","OW353"
"2023-05-19 18:00",4.72584315015904,"Approved","OW353"
"2023-05-19 19:00",4.72884424701108,"Approved","OW353"
"2023-05-19 20:00",4.73084534386311,"Approved","OW353"
"2023-05-19 21:00",4.73284644071515,"Approved","OW353"
"2023-05-19 22:00",4.73584753756718,"Approved","OW353"
"2023-05-19 23:00",4.73684863441922,"Approved","OW353"
"2023-05-20 00:00",4.73084973127125,"Approved","OW353"
"2023-05-20 01:00",4.71385082812329,"Approved","OW353"
"2023-05-20 02:00",4.70985192497532,"Approved","OW353"
"2023-05-20 03:00",4.72685302182736,"Approved","OW353"
"2023-05-20 04:00",4.73785411867939,"Approved","OW353"
"2023-05-20 05:00",4.74285521553142,"Approved","OW353"
"2023-05-20 06:00",4.74685631238346,"Approved","OW353"
"2023-05-20 07:00",4.74985740923549,"Approved","OW353"
"2023-05-20 08:00",4.75285850608753,"Approved","OW353"
"2023-05-20 09:00",4.75585960293956,"Approved","OW353"
"2023-05-20 10:00",4.7588606997916,"Approved","OW353"
"2023-05-20 11:00",4.76086179664363,"Approved","OW353"
"2023-05-20 12:00",4.76386289349567,"Approved","OW353"
"2023-05-20 13:00",4.7668639903477,"Approved","OW353"
"2023-05-20 14:00",4.74886508719974,"Approved","OW353"
"2023-05-20 15:00",4.75086618405177,"Approved","OW353"
"2023-05-20 16:00",4.76386728090381,"Approved","OW353"
"2023-05-20 17:00",4.76786837775584,"Approved","OW353"
"2023-05-20 18:00",4.77186947460788,"Approved","OW353"
"2023-05-20 19:00",4.77387057145991,"Approved","OW353"
"2023-05-20 20:00",4.77687166831195,"Approved","OW353"
"2023-05-20 21:00",4.77887276516398,"Approved","OW353"
"2023-05-20 22:00",4.78087386201601,"Approved","OW353"
"2023-05-20 23:00",4.78287495886805,"Approved","OW353"
"2023-05-21 00:00",4.78487605572008,"Approved","OW353"
"2023-05-21 01:00",4.76287715257212,"Approved","OW353"
"2023-05-21 02:00",4.75687824942415,"Approved","OW353"
"2023-05-21 03:00",4.75487934627619,"Approved","OW353"
"2023-05-21 04:00",4.75788044312822,"Approved","OW353"
"2023-05-21 05:00",4.75788153998026,"Approved","OW353"
"2023-05-21 06:00",4.76988263683229,"Approved","OW353"
"2023-05-21 07:00",4.77988373368433,"Approved","OW353"
"2023-05-21 08:00",4.78388483053636,"Approved","OW353"
"2023-05-21 09:00",4.78788592738839,"Approved","OW353"
"2023-05-21 10:00",4.78988702424043,"Approved","OW353"
"2023-05-21 11:00",4.79288812109247,"Approved","OW353"
"2023-05-21 12:00",4.7958892179445,"Approved","OW353"
"2023-05-21 13:00",4.78289031479653,"Approved","OW353"
"2023-05-21 14:00",4.78289141164857,"Approved","OW353"
"2023-05-21 15:00",4.7928925085006,"Approved","OW353"
"2023-05-21 16:00",4.79689360535264,"Approved","OW353"
"2023-05-21 17:00",4.79889470220467,"Approved","OW353"
"2023-05-21 18:00",4.80089579905671,"Approved","OW353"
"2023-05-21 19:00",4.80289689590874,"Approved","OW353"
"2023-05-21 20:00",4.79489799276078,"Approved","OW353"
"2023-05-21 21:00",4.80689908961281,"Approved","OW353"
"2023-05-21 22:00",4.80990018646485,"Approved","OW353"
"2023-05-21 23:00",4.81190128331688,"Approved","OW353"
"2023-05-22 00:00",4.80090238016892,"Approved","OW353"
"2023-05-22 01:00",4.81290347702095,"Approved","OW353"
"2023-05-22 02:00",4.81790457387298,"Approved","OW353"
"2023-05-22 03:00",4.82090567072502,"Approved","OW353"
"2023-05-22 04:00",4.82290676757705,"Approved","OW353"
"2023-05-22 05:00",4.82590786442909,"Approved","OW353"
"2023-05-22 06:00",4.82790896128112,"Approved","OW353"
"2023-05-22 07:00",4.83091005813316,"Approved","OW353"
"2023-05-22 08:00",4.83291115498519,"Approved","OW353"
"2023-05-22 09:00",4.83391225183723,"Approved","OW353"
"2023-05-22 10:00",4.83691334868926,"Approved","OW353"
"2023-05-22 11:00",4.8389144455413,"Approved","OW353"
"2023-05-22 12:00",4.84091554239333,"Approved","OW353"
"2023-05-22 13:00",4.84291663924537,"Approved","OW353"
"2023-05-22 14:00",4.8449177360974,"Approved","OW353"
"2023-05-22 15:00",4.84791883294944,"Approved","OW353"
"2023-05-22 16:00",4.82691992980147,"Approved","OW353"
"2023-05-22 17:00",4.8229210266535,"Approved","OW353"
"2023-05-22 18:00",4.82192212350554,"Approved","OW353"
"2023-05-22 19:00",4.81992322035757,"Approved","OW353"
"2023-05-22 20:00",4.81892431720961,"Approved","OW353"
"2023-05-22 21:00",4.81692541406164,"Approved","OW353"
"2023-05-22 22:00",4.83492651091368,"Approved","OW353"
"2023-05-22 23:00",4.81892760776571,"Approved","OW353"
"2023-05-23 00:00",4.81592870461775,"Approved","OW353"
"2023-05-23 01:00",4.82792980146978,"Approved","OW353"
"2023-05-23 02:00",4.83893089832182,"Approved","OW353"
"2023-05-23 03:00",4.84393199517385,"Approved","OW353"
"2023-05-23 04:00",4.84793309202589,"Approved","OW353"
"2023-05-23 05:00",4.85193418887792,"Approved","OW353"
"2023-05-23 06:00",4.85393528572996,"Approved","OW353"
"2023-05-23 07:00",4.85693638258199,"Approved","OW353"
"2023-05-23 08:00",4.85993747943402,"Approved","OW353"
"2023-05-23 09:00",4.86193857628606,"Approved","OW353"
"2023-05-23 10:00",4.86393967313809,"Approved","OW353"
"2023-05-23 11:00",4.86594076999013,"Approved","OW353"
"2023-05-23 12:00",4.86794186684216,"Approved","OW353"
"2023-05-23 13:00",4.8699429636942,"Approved","OW353"
"2023-05-23 14:00",4.85494406054623,"Approved","OW353"
"2023-05-23 15:00",4.84494515739827,"Approved","OW353"
"2023-05-23 16:00",4.8539462542503,"Approved","OW353"
"2023-05-23 17:00",4.86694735110234,"Approved","OW353"
"2023-05-23 18:00",4.87094844795437,"Approved","OW353"
"2023-05-23 19:00",4.87494954480641,"Approved","OW353"